GW3385 Weather Reports


Display with metric or nautical units.
time (UTC)temp
F
wind
direction
speed
MPH
gust
MPH
rain 1hr
in
rain 24hr
in
rain mn
in
humidity
%
barometer
mb
20260510091559 57 58 1.0 5.0 0.00 0.00 0.00 94 1011.8
20260510091056 57 65 2.0 5.0 0.00 0.00 0.00 94 1011.8
20260510090556 57 62 0.0 4.0 0.00 0.00 0.00 94 1011.8
20260510090100 57 55 1.0 4.0 0.00 0.00 0.00 93 1011.8
20260510085559 57 0 0.0 6.0 0.00 0.00 0.00 94 1011.8
20260510085056 57 118 2.0 6.0 0.00 0.00 0.00 93 1011.8
20260510084555 57 67 1.0 4.0 0.00 0.00 0.00 93 1011.8
20260510084056 58 50 2.0 4.0 0.00 0.00 0.00 93 1011.7
20260510083556 58 59 1.0 4.0 0.00 0.00 0.00 93 1011.7
20260510083057 58 86 0.0 3.0 0.00 0.00 0.00 93 1011.7
20260510082555 58 0 0.0 4.0 0.00 0.00 0.00 93 1011.8
20260510082055 58 58 2.0 4.0 0.00 0.00 0.00 93 1011.8
20260510081556 58 65 2.0 4.0 0.00 0.00 0.00 93 1011.9
20260510081056 58 0 0.0 2.0 0.00 0.00 0.00 93 1011.9
20260510080555 58 109 0.0 3.0 0.00 0.00 0.00 93 1012.0
20260510080054 58 97 0.0 4.0 0.00 0.00 0.00 93 1012.0
20260510075557 58 64 1.0 4.0 0.00 0.00 0.00 93 1012.1
20260510075055 58 0 0.0 0.0 0.00 0.00 0.00 93 1012.1
20260510074557 58 0 0.0 0.0 0.00 0.00 0.00 93 1012.2
20260510074056 58 0 0.0 0.0 0.00 0.00 0.00 93 1012.1
20260510073556 58 0 0.0 0.0 0.00 0.00 0.00 93 1012.2
20260510073112 58 0 0.0 0.0 0.00 0.00 0.00 93 1012.2
20260510072556 58 0 0.0 0.0 0.00 0.00 0.00 93 1012.2
20260510072056 58 0 0.0 0.0 0.00 0.00 0.00 93 1012.2
20260510071605 58 0 0.0 2.0 0.00 0.00 0.00 92 1012.2
20260510071055 58 0 0.0 2.0 0.00 0.00 0.00 92 1012.3
20260510070555 58 55 0.0 2.0 0.00 0.00 0.00 92 1012.2
20260510070056 58 86 0.0 2.0 0.00 0.00 0.00 92 1012.2
20260510065556 58 0 0.0 3.0 0.00 0.00 0.00 92 1012.2
20260510065056 58 0 1.0 3.0 0.00 0.00 0.00 92 1012.3
20260510064600 58 0 0.0 3.0 0.00 0.00 0.00 92 1012.2
20260510064056 58 61 1.0 3.0 0.00 0.00 0.00 92 1012.3
20260510063556 58 0 0.0 2.0 0.00 0.00 0.00 92 1012.2
20260510063103 58 0 1.0 2.0 0.00 0.00 0.00 92 1012.2
20260510062556 58 0 0.0 2.0 0.00 0.00 0.00 92 1012.2
20260510062056 58 0 0.0 3.0 0.00 0.00 0.00 92 1012.2
20260510061558 58 0 0.0 3.0 0.00 0.00 0.00 92 1012.1
20260510061059 59 77 1.0 3.0 0.00 0.00 0.00 92 1012.2
20260510060557 58 171 0.0 2.0 0.00 0.00 0.00 92 1012.2
20260510060059 59 0 0.0 2.0 0.00 0.00 0.00 92 1012.2
20260510055558 58 0 0.0 3.0 0.00 0.00 0.00 92 1012.2
20260510055056 59 0 1.0 3.0 0.00 0.00 0.00 92 1012.2
20260510054559 59 167 0.0 1.0 0.00 0.00 0.00 92 1012.2
20260510054056 58 0 0.0 2.0 0.00 0.00 0.00 92 1012.3
20260510053555 58 0 0.0 3.0 0.00 0.00 0.00 92 1012.3
20260510053107 58 69 0.0 3.0 0.00 0.00 0.00 92 1012.3
20260510052555 59 0 0.0 3.0 0.00 0.00 0.00 92 1012.3
20260510052055 59 0 1.0 3.0 0.00 0.00 0.00 92 1012.3
20260510051601 59 0 0.0 2.0 0.00 0.00 0.00 92 1012.2
20260510051057 59 0 0.0 0.0 0.00 0.00 0.00 92 1012.3
20260510050557 59 0 0.0 1.0 0.00 0.00 0.00 93 1012.2
20260510050059 59 0 0.0 1.0 0.00 0.00 0.00 93 1012.1
20260510045556 58 0 0.0 0.0 0.00 0.00 0.00 93 1012.1
20260510045057 58 0 0.0 0.0 0.00 0.00 0.00 93 1012.2
20260510044554 58 0 0.0 0.0 0.00 0.00 0.00 93 1012.1
20260510044057 58 0 0.0 0.0 0.00 0.00 0.00 93 1012.1
20260510043648 58 0 0.0 2.0 0.00 0.00 0.00 93 1012.0
20260510043108 58 0 0.0 3.0 0.00 0.00 0.00 93 1011.9
20260510042555 58 0 0.0 3.0 0.00 0.00 0.00 93 1011.9
20260510042055 58 11 0.0 2.0 0.00 0.00 0.00 93 1011.9
20260510041558 58 0 0.0 2.0 0.00 0.00 0.00 93 1012.0
20260510041056 58 0 0.0 4.0 0.00 0.00 0.00 93 1011.9
20260510040556 58 309 0.0 4.0 0.00 0.00 0.00 93 1011.9
20260510040109 58 298 2.0 4.0 0.00 0.00 0.00 92 1011.9
20260510035556 58 0 0.0 7.0 0.00 0.00 0.00 93 1011.8
20260510035055 58 240 2.0 7.0 0.00 0.00 0.00 92 1011.9
20260510034600 58 272 2.0 7.0 0.00 0.00 0.00 92 1011.8
20260510034055 58 269 2.0 7.0 0.00 0.00 0.00 92 1011.8
20260510033557 58 0 1.0 4.0 0.00 0.00 0.00 92 1011.7
20260510033101 58 263 0.0 5.0 0.00 0.00 0.00 92 1011.6
20260510032556 58 289 1.0 6.0 0.00 0.00 0.00 92 1011.6
20260510032056 58 314 2.0 6.0 0.00 0.00 0.00 92 1011.5
20260510031557 58 272 1.0 4.0 0.00 0.00 0.00 92 1011.5
20260510031055 58 205 0.0 5.0 0.00 0.00 0.00 92 1011.4
20260510030555 58 0 1.0 7.0 0.00 0.00 0.00 92 1011.2
20260510030056 59 165 3.0 7.0 0.00 0.00 0.00 92 1011.2
20260510025555 59 281 2.0 6.0 0.00 0.00 0.00 92 1011.2
20260510025056 59 272 0.0 5.0 0.00 0.00 0.00 92 1011.1
20260510024558 59 0 0.0 7.0 0.00 0.00 0.00 92 1011.1
20260510024056 59 284 3.0 8.0 0.00 0.00 0.00 91 1011.1
20260510023555 59 264 3.0 8.0 0.00 0.00 0.00 91 1010.9
20260510023055 59 176 4.0 8.0 0.00 0.00 0.00 91 1010.8
20260510022556 59 219 3.0 6.0 0.00 0.00 0.00 91 1010.8
20260510022056 59 250 1.0 8.0 0.00 0.00 0.00 91 1010.8
20260510021600 59 189 4.0 9.0 0.00 0.00 0.00 91 1010.8
20260510021056 59 198 4.0 9.0 0.00 0.00 0.00 91 1010.7
20260510020556 59 181 3.0 7.0 0.00 0.00 0.00 91 1010.6
20260510020055 59 219 1.0 6.0 0.00 0.00 0.00 91 1010.7
20260510015555 59 273 2.0 7.0 0.00 0.00 0.00 91 1010.6
20260510015059 59 166 3.0 9.0 0.00 0.00 0.00 91 1010.6
20260510014611 59 287 4.0 10.0 0.00 0.00 0.00 91 1010.6
20260510014055 59 276 5.0 10.0 0.00 0.00 0.00 91 1010.6
20260510013558 59 267 5.0 11.0 0.00 0.00 0.00 91 1010.6
20260510013103 59 278 7.0 12.0 0.00 0.00 0.00 90 1010.7
20260510012555 60 275 6.0 12.0 0.00 0.00 0.00 89 1010.6
20260510012055 60 262 5.0 11.0 0.00 0.00 0.00 89 1010.6
20260510011557 60 275 7.0 13.0 0.00 0.00 0.00 89 1010.7
20260510011056 61 299 7.0 13.0 0.00 0.00 0.00 88 1010.6
20260510010556 61 200 6.0 11.0 0.00 0.00 0.00 88 1010.6
20260510010054 61 173 5.0 11.0 0.00 0.00 0.00 87 1010.6
20260510005556 61 215 5.0 11.0 0.00 0.00 0.00 87 1010.6
20260510005056 62 175 6.0 11.0 0.00 0.00 0.00 86 1010.6
20260510004559 62 187 5.0 11.0 0.00 0.00 0.00 86 1010.5
20260510004100 62 264 3.0 10.0 0.00 0.00 0.00 86 1010.4
20260510003556 62 172 5.0 10.0 0.00 0.00 0.00 85 1010.5
20260510003105 63 269 5.0 13.0 0.00 0.00 0.00 85 1010.4
20260510002555 63 215 6.0 13.0 0.00 0.00 0.00 84 1010.5
20260510002055 63 222 6.0 10.0 0.00 0.00 0.00 83 1010.6
20260510001555 64 171 4.0 12.0 0.00 0.00 0.00 84 1010.6
20260510001055 64 173 6.0 12.0 0.00 0.00 0.00 82 1010.7
20260510000556 64 228 5.0 14.0 0.00 0.00 0.00 83 1010.7
20260510000059 64 146 7.0 14.0 0.00 0.00 0.00 81 1010.7
20260509235556 65 269 5.0 12.0 0.00 0.00 0.00 82 1010.6
20260509235056 65 213 8.0 12.0 0.00 0.00 0.00 80 1010.7
20260509234558 66 171 3.0 10.0 0.00 0.00 0.00 79 1010.6
20260509234056 66 250 4.0 12.0 0.00 0.00 0.00 80 1010.6
20260509233600 66 227 5.0 12.0 0.00 0.00 0.00 80 1010.5
20260509233101 66 232 5.0 12.0 0.00 0.00 0.00 79 1010.5
20260509232559 66 162 3.0 12.0 0.00 0.00 0.00 79 1010.7
20260509232057 66 238 6.0 12.0 0.00 0.00 0.00 79 1010.6
20260509231558 66 214 4.0 13.0 0.00 0.00 0.00 80 1010.6
20260509231055 66 279 6.0 13.0 0.00 0.00 0.00 80 1010.7
20260509230555 66 182 7.0 13.0 0.00 0.00 0.00 79 1010.6
20260509230100 67 178 4.0 11.0 0.00 0.00 0.00 78 1010.7
20260509225556 67 223 6.0 11.0 0.00 0.00 0.00 79 1010.6
20260509225055 67 289 4.0 13.0 0.00 0.00 0.00 79 1010.7
20260509224605 66 189 6.0 13.0 0.00 0.00 0.00 80 1010.8
20260509224056 66 286 7.0 13.0 0.00 0.00 0.00 79 1010.9
20260509223555 67 277 6.0 13.0 0.00 0.00 0.00 80 1011.0
20260509223059 67 288 7.0 13.0 0.00 0.00 0.00 77 1011.1
20260509222559 67 228 4.0 11.0 0.00 0.00 0.00 78 1011.1
20260509222056 67 267 5.0 11.0 0.00 0.00 0.00 78 1011.1
20260509221606 68 254 6.0 13.0 0.00 0.00 0.00 76 1011.2
20260509221055 68 198 6.0 13.0 0.00 0.00 0.00 77 1011.3
20260509220558 68 173 7.0 13.0 0.00 0.00 0.00 78 1011.4
20260509220055 68 190 6.0 13.0 0.00 0.00 0.00 76 1011.4
20260509215556 68 130 5.0 11.0 0.00 0.00 0.00 77 1011.6
20260509215057 68 184 6.0 13.0 0.00 0.00 0.00 76 1011.6
20260509214604 68 261 4.0 13.0 0.00 0.00 0.00 77 1011.5
20260509214056 68 246 5.0 12.0 0.00 0.00 0.00 76 1011.6
20260509213557 68 182 5.0 11.0 0.00 0.00 0.00 75 1011.6
20260509213056 68 265 5.0 11.0 0.00 0.00 0.00 77 1011.7
20260509212555 68 175 5.0 13.0 0.00 0.00 0.00 76 1011.8
20260509212059 68 261 6.0 13.0 0.00 0.00 0.00 75 1011.8
20260509211558 68 236 5.0 10.0 0.00 0.00 0.00 76 1011.9
20260509211059 69 286 3.0 10.0 0.00 0.00 0.00 77 1011.9
20260509210556 68 200 5.0 12.0 0.00 0.00 0.00 76 1011.9
20260509210114 68 159 5.0 12.0 0.00 0.00 0.00 75 1012.0
20260509205556 68 222 4.0 12.0 0.00 0.00 0.00 76 1012.0
20260509205056 68 158 5.0 12.0 0.00 0.00 0.00 76 1012.2
20260509204600 68 242 4.0 12.0 0.00 0.00 0.00 76 1012.2
20260509204056 68 183 5.0 11.0 0.00 0.00 0.00 75 1012.2
20260509203556 68 149 4.0 9.0 0.00 0.00 0.00 76 1012.3
20260509203059 68 250 4.0 11.0 0.00 0.00 0.00 76 1012.3
20260509202556 68 254 4.0 11.0 0.00 0.00 0.00 76 1012.3
20260509202056 68 304 4.0 11.0 0.00 0.00 0.00 77 1012.1
20260509201602 68 269 5.0 11.0 0.00 0.00 0.00 77 1012.2
20260509201056 68 183 5.0 11.0 0.00 0.00 0.00 76 1012.2
20260509200556 68 266 6.0 12.0 0.00 0.00 0.00 77 1012.3
20260509200105 67 196 5.0 12.0 0.00 0.00 0.00 77 1012.3
20260509195557 68 240 6.0 11.0 0.00 0.00 0.00 77 1012.3
20260509195056 68 268 4.0 10.0 0.00 0.00 0.00 77 1012.4
20260509194608 68 256 5.0 11.0 0.00 0.00 0.00 77 1012.4
20260509194056 67 173 5.0 11.0 0.00 0.00 0.00 78 1012.4
20260509193556 68 215 6.0 11.0 0.00 0.00 0.00 76 1012.4
20260509193057 68 198 3.0 12.0 0.00 0.00 0.00 78 1012.4
20260509192600 67 234 3.0 13.0 0.00 0.00 0.00 78 1012.5
20260509192056 67 184 5.0 13.0 0.00 0.00 0.00 78 1012.5
20260509191603 67 298 4.0 9.0 0.00 0.00 0.00 78 1012.5
20260509191057 67 199 4.0 10.0 0.00 0.00 0.00 78 1012.6
20260509190555 67 177 6.0 12.0 0.00 0.00 0.00 78 1012.5
20260509190107 67 204 6.0 12.0 0.00 0.00 0.00 78 1012.8
20260509185556 67 209 5.0 10.0 0.00 0.00 0.00 79 1012.8
20260509185056 67 205 4.0 11.0 0.00 0.00 0.00 79 1012.9
20260509184556 67 178 5.0 12.0 0.00 0.00 0.00 79 1012.9
20260509184057 67 219 4.0 12.0 0.00 0.00 0.00 79 1012.8
20260509183555 67 167 6.0 13.0 0.00 0.00 0.00 78 1012.8
20260509183055 67 294 4.0 13.0 0.00 0.00 0.00 79 1012.8
20260509182555 67 201 4.0 12.0 0.00 0.00 0.00 78 1012.9
20260509182055 67 187 4.0 11.0 0.00 0.00 0.00 79 1012.8
20260509181600 67 299 4.0 11.0 0.00 0.00 0.00 79 1012.8
20260509181057 67 192 5.0 11.0 0.00 0.00 0.00 78 1012.8
20260509180557 67 236 4.0 10.0 0.00 0.00 0.00 79 1012.8
20260509180100 67 263 4.0 10.0 0.00 0.00 0.00 79 1013.0
20260509175556 67 229 4.0 9.0 0.00 0.00 0.00 78 1013.0
20260509175057 67 203 3.0 9.0 0.00 0.00 0.00 78 1012.9
20260509174554 67 199 3.0 9.0 0.00 0.00 0.00 77 1012.9
20260509174055 67 128 3.0 7.0 0.00 0.00 0.00 78 1012.9
20260509173555 67 0 1.0 8.0 0.00 0.00 0.00 79 1012.9
20260509173053 67 190 3.0 8.0 0.00 0.00 0.00 77 1013.0
20260509172557 67 236 2.0 7.0 0.00 0.00 0.00 77 1012.9
20260509172056 67 234 2.0 7.0 0.00 0.00 0.00 77 1013.0
20260509171557 67 221 2.0 6.0 0.00 0.00 0.00 77 1013.0
20260509171057 67 174 1.0 6.0 0.00 0.00 0.00 77 1013.0
20260509170556 67 35 1.0 7.0 0.00 0.00 0.00 78 1012.9
20260509170106 66 169 1.0 7.0 0.00 0.00 0.00 80 1012.9
20260509165556 66 62 3.0 7.0 0.00 0.00 0.00 80 1012.9
20260509165056 65 152 1.0 6.0 0.00 0.00 0.00 81 1012.7
20260509164558 65 0 1.0 4.0 0.00 0.00 0.00 82 1012.8
20260509164056 65 194 1.0 5.0 0.00 0.00 0.00 82 1012.7
20260509163556 64 169 1.0 5.0 0.00 0.00 0.00 83 1012.7
20260509163057 64 105 1.0 5.0 0.00 0.00 0.00 83 1012.7
20260509162556 64 0 0.0 2.0 0.00 0.00 0.00 84 1012.7
20260509162056 63 201 0.0 2.0 0.00 0.00 0.00 85 1012.7
20260509161600 63 0 0.0 2.0 0.00 0.00 0.00 84 1012.7
20260509161055 63 0 0.0 3.0 0.00 0.00 0.00 85 1012.7
20260509160557 63 0 0.0 3.0 0.00 0.00 0.00 86 1012.7
20260509160057 62 0 0.0 4.0 0.00 0.00 0.00 86 1012.7
20260509155556 62 30 1.0 4.0 0.00 0.00 0.00 86 1012.7
20260509155057 62 0 0.0 2.0 0.00 0.00 0.00 87 1012.7
20260509154601 62 0 0.0 1.0 0.00 0.00 0.00 87 1012.7
20260509154057 62 0 0.0 3.0 0.00 0.00 0.00 87 1012.7
20260509153555 61 0 0.0 3.0 0.00 0.00 0.00 88 1012.8
20260509153102 61 199 0.0 3.0 0.00 0.00 0.00 88 1012.9
20260509152557 61 0 0.0 3.0 0.00 0.00 0.00 88 1012.8
20260509152056 61 0 1.0 3.0 0.00 0.00 0.00 88 1012.8
20260509151603 61 301 1.0 3.0 0.00 0.00 0.00 88 1012.7
20260509151056 61 0 0.0 3.0 0.00 0.00 0.00 88 1012.7
20260509150556 61 0 0.0 3.0 0.00 0.00 0.00 89 1012.7
20260509150059 61 0 0.0 2.0 0.00 0.00 0.00 89 1012.8
20260509145556 60 343 0.0 5.0 0.00 0.00 0.00 89 1012.7
20260509145058 60 0 0.0 5.0 0.00 0.00 0.00 89 1012.7
20260509144558 60 347 0.0 3.0 0.00 0.00 0.00 89 1012.7
20260509144056 60 343 0.0 3.0 0.00 0.00 0.00 89 1012.7
20260509143555 60 352 0.0 3.0 0.00 0.00 0.00 90 1012.7
20260509143102 60 340 0.0 3.0 0.00 0.00 0.00 90 1012.6
20260509142555 60 0 1.0 3.0 0.00 0.00 0.00 90 1012.6
20260509142058 60 0 0.0 1.0 0.00 0.00 0.00 90 1012.5
20260509141558 60 0 0.0 3.0 0.00 0.00 0.00 90 1012.5
20260509141056 60 0 0.0 3.0 0.00 0.00 0.00 90 1012.5
20260509140557 60 38 1.0 3.0 0.00 0.00 0.00 90 1012.5
20260509140104 60 0 0.0 3.0 0.00 0.00 0.00 90 1012.6
20260509135556 60 342 0.0 3.0 0.00 0.00 0.00 90 1012.5
20260509135055 60 0 0.0 0.0 0.00 0.00 0.00 90 1012.4
20260509134630 60 0 0.0 2.0 0.00 0.00 0.00 90 1012.4
20260509134059 60 0 0.0 2.0 0.00 0.00 0.00 90 1012.4
20260509133557 60 55 0.0 1.0 0.00 0.00 0.00 90 1012.4
20260509133108 60 0 0.0 1.0 0.00 0.00 0.00 90 1012.4
20260509132556 60 0 0.0 2.0 0.00 0.00 0.00 91 1012.3
20260509132056 60 0 0.0 3.0 0.00 0.00 0.00 91 1012.3
20260509131559 60 54 1.0 3.0 0.00 0.00 0.00 90 1012.3
20260509131056 60 0 0.0 3.0 0.00 0.00 0.00 91 1012.3
20260509130556 59 0 0.0 3.0 0.00 0.00 0.00 90 1012.2
20260509130113 60 0 0.0 3.0 0.00 0.00 0.00 91 1012.2
20260509125557 59 0 0.0 4.0 0.00 0.00 0.00 91 1012.2
20260509125056 59 0 1.0 4.0 0.00 0.00 0.00 91 1012.2
20260509124558 59 65 1.0 3.0 0.00 0.00 0.00 91 1012.1
20260509124116 59 46 0.0 3.0 0.00 0.00 0.00 91 1012.1
20260509123559 59 33 0.0 0.0 0.00 0.00 0.00 91 1012.1
20260509123057 59 0 0.0 4.0 0.00 0.00 0.00 91 1012.1
20260509122555 59 0 0.0 4.0 0.00 0.00 0.00 91 1012.1
20260509122056 59 59 1.0 4.0 0.00 0.00 0.00 91 1012.1
20260509121555 59 0 0.0 0.0 0.00 0.00 0.00 91 1012.0
20260509121056 59 0 0.0 0.0 0.00 0.00 0.00 91 1012.1
20260509120556 59 0 0.0 0.0 0.00 0.00 0.00 91 1012.0
20260509120057 59 0 0.0 3.0 0.00 0.00 0.00 91 1012.0
20260509115555 59 0 0.0 3.0 0.00 0.00 0.00 91 1012.1
20260509115055 59 49 0.0 3.0 0.00 0.00 0.00 91 1012.1
20260509114559 59 49 0.0 3.0 0.00 0.00 0.00 91 1012.1
20260509114057 59 0 0.0 3.0 0.00 0.00 0.00 91 1012.1
20260509113557 59 121 0.0 4.0 0.00 0.00 0.00 91 1012.2
20260509113059 59 124 1.0 4.0 0.00 0.00 0.00 92 1012.1
20260509112556 59 0 1.0 4.0 0.00 0.00 0.00 92 1012.1
20260509112056 59 92 1.0 4.0 0.00 0.00 0.00 91 1012.0
20260509111556 59 118 1.0 4.0 0.00 0.00 0.00 92 1012.1
20260509111056 59 110 0.0 5.0 0.00 0.00 0.00 92 1012.1
20260509110600 59 0 1.0 5.0 0.00 0.00 0.00 92 1012.1
20260509110054 59 29 1.0 4.0 0.00 0.00 0.00 92 1012.1
20260509105557 59 118 1.0 7.0 0.00 0.00 0.00 92 1012.3
20260509105056 59 114 3.0 7.0 0.00 0.00 0.00 92 1012.2
20260509104557 59 101 0.0 4.0 0.00 0.00 0.00 92 1012.3
20260509104056 59 53 0.0 4.0 0.00 0.00 0.00 92 1012.3
20260509103555 59 55 2.0 4.0 0.00 0.00 0.00 92 1012.3
20260509103058 59 98 0.0 0.0 0.00 0.00 0.00 92 1012.3
20260509102557 59 0 0.0 4.0 0.00 0.00 0.00 92 1012.3
20260509102055 59 0 0.0 4.0 0.00 0.00 0.00 92 1012.3
20260509101604 59 67 2.0 4.0 0.00 0.00 0.00 92 1012.4
20260509101057 59 52 0.0 3.0 0.00 0.00 0.00 92 1012.3
20260509100556 59 0 0.0 4.0 0.00 0.00 0.00 92 1012.3
20260509100055 59 46 0.0 4.0 0.00 0.00 0.00 92 1012.4
20260509095556 59 0 1.0 3.0 0.00 0.00 0.00 92 1012.4
20260509095056 59 0 0.0 3.0 0.00 0.00 0.00 92 1012.4
20260509094557 59 92 0.0 3.0 0.00 0.00 0.00 92 1012.5
20260509094056 59 0 1.0 4.0 0.00 0.00 0.00 92 1012.6
20260509093556 59 62 1.0 4.0 0.00 0.00 0.00 92 1012.5
20260509093059 59 0 1.0 3.0 0.00 0.00 0.00 92 1012.6
20260509092556 59 55 1.0 3.0 0.00 0.00 0.00 91 1012.7
20260509092051 59 0 0.0 1.0 0.00 0.00 0.00 92 1012.7